This demonstration page uses our WeatherBlox Daily Observations layout. Learn more.

Left ArrowRight Arrow

53.62937, 11.41316

Hourly Observations for December 4, 2022

Temp ( °F °C ) Dew Point ( °F °C ) Humidity (%) Winds ( mph kmh ) Pressure ( in mb ) Visibility ( mi km ) Precip ( " mm )
12:20 am 00:20 Cloudy 30 -1 27 -3 86 86 E 8 13 30.21 1023 6 10 0.00 0.00
12:50 am 00:50 Cloudy 30 -1 27 -3 86 86 E 8 13 30.21 1023 6 10 0.00 0.00
1:20 am 01:20 Cloudy 30 -1 27 -3 86 86 E 8 13 30.21 1023 6 10 0.00 0.00
1:50 am 01:50 Cloudy 30 -1 27 -3 86 86 E 8 13 30.21 1023 6 10 0.00 0.00
2:20 am 02:20 Cloudy 30 -1 27 -3 86 86 E 8 13 30.21 1023 6 9 0.00 0.00
2:50 am 02:50 Cloudy 30 -1 27 -3 86 86 E 7 11 30.21 1023 6 9 0.00 0.00
3:20 am 03:20 Cloudy 30 -1 27 -3 86 86 E 7 11 30.21 1023 6 9 0.00 0.00
3:50 am 03:50 Cloudy 30 -1 27 -3 86 86 E 7 11 30.21 1023 6 9 0.00 0.00
4:20 am 04:20 Cloudy 30 -1 28 -2 93 93 E 6 9 30.21 1023 6 9 0.00 0.00
4:50 am 04:50 Cloudy 30 -1 28 -2 93 93 E 7 11 30.21 1023 6 9 0.00 0.00
5:20 am 05:20 Cloudy 30 -1 28 -2 93 93 ENE 6 9 30.21 1023 5 8 0.00 0.00
5:50 am 05:50 Cloudy 30 -1 28 -2 93 93 E 7 11 30.21 1023 4 7 0.00 0.00
6:20 am 06:20 Cloudy 32 0 28 -2 86 86 E 7 11 30.21 1023 4 7 0.00 0.00
6:50 am 06:50 Cloudy 32 0 28 -2 86 86 E 7 11 30.21 1023 4 6 0.00 0.00
7:20 am 07:20 Cloudy 32 0 28 -2 86 86 ENE 8 13 30.21 1023 4 7 0.00 0.00
7:50 am 07:50 Cloudy 32 0 30 -1 93 93 ENE 7 11 30.21 1023 4 6 0.00 0.00
8:20 am 08:20 Cloudy 32 0 30 -1 93 93 ENE 8 13 30.21 1023 4 6 0.00 0.00
8:50 am 08:50 Cloudy 32 0 30 -1 93 93 ENE 9 15 30.21 1023 4 6 0.00 0.00
9:20 am 09:20 Cloudy 32 0 30 -1 93 93 ENE 7 11 30.21 1023 4 6 0.00 0.00
9:50 am 09:50 Cloudy 34 1 30 -1 86 86 E 8 13 30.21 1023 4 6 0.00 0.00
10:20 am 10:20 Mostly Cloudy 34 1 30 -1 86 86 ENE 9 15 30.21 1023 4 6 0.00 0.00
10:50 am 10:50 Cloudy 34 1 30 -1 86 86 ENE 9 15 30.21 1023 4 6 0.00 0.00
11:20 am 11:20 Cloudy 36 2 32 0 87 87 ENE 10 17 30.21 1023 4 6 0.00 0.00
11:50 am 11:50 Cloudy 36 2 32 0 87 87 ENE 8 13 30.21 1023 4 6 0.00 0.00
12:20 pm 12:20 Cloudy 36 2 32 0 87 87 ENE 9 15 30.18 1022 4 6 0.00 0.00
12:50 pm 12:50 Cloudy 37 3 32 0 81 81 ENE 9 15 30.18 1022 4 7 0.00 0.00
1:20 pm 13:20 Cloudy 37 3 34 1 87 87 ENE 9 15 30.18 1022 4 7 0.00 0.00
1:50 pm 13:50 Cloudy 37 3 34 1 87 87 E 10 17 30.18 1022 4 7 0.00 0.00
2:20 pm 14:20 Cloudy 37 3 34 1 87 87 ENE 10 17 30.18 1022 6 10 0.00 0.00
2:50 pm 14:50 Cloudy 39 4 34 1 81 81 ENE 12 19 30.15 1021 6 10 0.00 0.00
3:20 pm 15:20 Cloudy 39 4 36 2 87 87 E 13 20 30.15 1021 4 7 0.00 0.00
3:50 pm 15:50 Cloudy 39 4 36 2 87 87 E 12 19 30.15 1021 4 7 0.00 0.00
4:20 pm 16:20 Cloudy 39 4 36 2 87 87 E 10 17 30.15 1021 4 7 0.00 0.00
4:50 pm 16:50 Cloudy 39 4 36 2 87 87 ENE 12 19 30.15 1021 6 10 0.00 0.00
5:20 pm 17:20 Cloudy 39 4 36 2 87 87 E 10 17 30.15 1021 6 10 0.00 0.00
5:50 pm 17:50 Cloudy 39 4 37 3 93 93 E 13 20 30.15 1021 6 10 0.00 0.00
6:20 pm 18:20 Cloudy 39 4 36 2 87 87 E 13 20 30.15 1021 6 10 0.00 0.00
6:50 pm 18:50 Cloudy 39 4 36 2 87 87 E 12 19 30.15 1021 6 10 0.00 0.00
7:20 pm 19:20 Cloudy 39 4 37 3 93 93 E 13 20 30.15 1021 6 10 0.00 0.00
7:50 pm 19:50 Cloudy 39 4 37 3 93 93 E 12 19 30.15 1021 6 10 0.00 0.00
8:20 pm 20:20 Cloudy 39 4 37 3 93 93 E 9 15 30.18 1022 6 10 0.00 0.00
8:50 pm 20:50 Cloudy 39 4 36 2 87 87 E 8 13 30.18 1022 6 10 0.00 0.00
9:20 pm 21:20 Cloudy 39 4 36 2 87 87 ENE 10 17 30.15 1021 6 10 0.00 0.00
9:50 pm 21:50 Cloudy 39 4 37 3 93 93 E 10 17 30.15 1021 6 10 0.00 0.00
10:20 pm 22:20 Cloudy 39 4 37 3 93 93 ENE 9 15 30.15 1021 6 10 0.00 0.00
10:50 pm 22:50 Cloudy 39 4 37 3 93 93 ENE 10 17 30.15 1021 6 10 0.00 0.00
11:20 pm 23:20 Cloudy 39 4 37 3 93 93 ENE 9 15 30.15 1021 6 10 0.00 0.00
11:50 pm 23:50 Cloudy 39 4 37 3 93 93 ENE 9 15 30.15 1021 6 9 0.00 0.00

Powered by AerisWeather